Torna al catalogo

ARIANE 5 DEB

SYLDA

AttivoGTO
NORAD 26497·DEBRIS·🇫🇷 France

Lanciato Sep 14, 2000 da Guiana Space Centre

Loading…

TLE

In scadenzaSource: Space-Track

Epoca: Sep 14, 2026, 18:35 UTC

1 26497U 00054D   26257.77465066  .00000260  00000-0  29104-2 0  9996
2 26497   6.8573 109.3730 7156630 139.2848 353.9901  2.28206970215751

Traccia ARIANE 5 DEB in tempo reale con AllMySat

Download on the App Store